Voltar ao catálogo

QIANFAN-61

AtivoComunicaçõesPO
NORAD 62791·PAYLOAD·🇨🇳 China

Lançado Jan 23, 2025 de Taiyuan Satellite Launch Center

Loading…

Próximas Passagens (próximas 24 horas)

TLE

AtualizadoSource: Space-Track

Época: Sep 14, 2026, 22:04 UTC

1 62791U 25016G   26257.91948675  .00000031  00000-0  29394-4 0  9995
2 62791  88.9715  74.6966 0012883 264.5880  95.3801 13.51027224 84531

Acompanhe QIANFAN-61 em tempo real com AllMySat

Download on the App Store